Paris, France

11:48 CEST le 02 juillet 2015 (GMT +0200)
Charles de Gaulle | | Change Station
CLOSE
Current Station
Aéroport
Location: Paris / Charles De Gaulle,
Altitude: 367 ft
Stations météo à proximité

Alt. 367 ft 49.02 °N, 2.53 °E | Updated 18 minutes ago

Clear
Ciel dégagé
79 ° F
Paraît 79 ° F
N
8
Vent Variable Vent de Variable

Aujourd'hui
Haut(e) -- | Bas -- ° F
--% Risque de précip.
Hier
Haut(e) -- | Bas -- ° F
Precip. -- pouce
5:50 AM 9:57 PM
Pleine lune, 100% visible
Pression 30.04 pouce
Visibilité -9999.0 Miles terrestres
Nuages
Point de rosée 64 ° F
Humidité 61%
Précipitations 0.00 pouce
Profondeur de la couche neigeuse Non disponible.
UV Non disponible.
Pollen Non disponible.
Qualité de l'air Non disponible.
Flu Activity Non disponible.
METAR LFPG 020930Z VRB07KT CAVOK 26/18 Q1017 NOSIG

More Conditions Fewer Conditions

Pression 30.04 pouce
Visibilité -9999.0 Miles terrestres
Nuages
Point de rosée 64 ° F
Humidité 61%
Précipitations 0.00 pouce
Profondeur de la couche neigeuse Non disponible.
UV Non disponible.
Pollen Non disponible.
Qualité de l'air Non disponible.
Flu Activity Non disponible.
METAR LFPG 020930Z VRB07KT CAVOK 26/18 Q1017 NOSIG

More Conditions Fewer Conditions

10-Day Weather Forecast

×

Almanac

Astronomie

Jul. 02, 2015 Lever Coucher
Temps réel
Crépuscule civil
Crépuscule nautique
Crépuscule astronomique
Lune
Durée de lumière visible
Longueur du jour
Tomorrow will be .
, % of the Moon is Illuminated

Extrêmes aujourd'hui

Country Highs Country Lows

Community

WunderPhotos

Upload Photos

1,834,434 Photos téléchargées !

WunderBlogs® & News

Nearby

Qualité de l'air

  Qualité de l'air Indice de la qualité de l'air Polluant
Not available.

Épaisseur de neige

Station Depth Altitude

Activité sismique

Ville Distance Mag. Time & Date
Minimum magnitude displayed is 2.5.

Températures des eaux côtières

Lieu Température

Stations

Stations météo à proximité

Emplacement de la station Température Refroidissement éolien Point de rosée Humidité Vent Precip. Alt. Mise à jour Type